Regional Weather Roundup
Issued by NWS

Home | Current Version | Previous Version | Graphics & Text | Print | Product List | Glossary On
Versions: 1 2 3 4 5 6 7 8 9 10 11 12 13 14 15 16 17 18 19 20 21 22 23 24 25 26 27 28 29 30 31 32 33 34 35 36 37 38 39 40 41 42 43 44 45 46 47 48 49 50
000
ASUS43 KIND 290209
RWRIN

WEATHER ROUNDUP FOR INDIANA
NATIONAL WEATHER SERVICE INDIANAPOLIS IN
900 PM EST SUN DEC 28 2014

NOTE: "FAIR" INDICATES FEW OR NO CLOUDS BELOW 12,000 FEET WITH NO
SIGNIFICANT WEATHER AND/OR OBSTRUCTIONS TO VISIBILITY.

* - STATION DOES NOT REPORT WEATHER SUCH AS PRECIPITATION OR FOG.

+ - STATION NOT QUALITY CONTROLLED BY THE NATIONAL WEATHER SERVICE.
    USE DATA WITH CAUTION...ESPECIALLY DEWPOINT AND RELATIVE
    HUMIDITY OBSERVATIONS.

INZ001>003-010>013-019-020-290300-
NORTHWEST INDIANA

CITY           SKY/WX    TMP DP  RH WIND       PRES   REMARKS
GARY /AIRPORT/ CLEAR     27  16  63 VRB7      30.23R WCI  19
KNOX *+        CLEAR     24  20  85 CALM      30.20S
LA PORTE +     PTCLDY    24  20  83 CALM      30.21S
MICHIGAN CITY+ CLEAR     27  14  59 CALM      30.22S
MONTICELLO +   CLEAR     24  23  96 SW3       30.22R
RENSSELAER +   CLEAR     28  27  93 CALM      30.22R
VALPARAISO     CLEAR     25  18  74 W6        30.22R WCI  18

$$

LMZ046-743>745-290300-
SOUTHERN LAKE MICHIGAN

STATION/POSITION TIME  TEMP WIND        PRES
                       AIR  DIR/SP/G
                 (UTC) (F)  (DEG/KT/KT) (MB)
MICHIGAN CITY    0200   29  190/  7/  8   N/A

$$

INZ004-005-014>016-021>024-290300-
NORTH CENTRAL INDIANA

CITY           SKY/WX    TMP DP  RH WIND       PRES   REMARKS
GOSHEN         CLEAR     25  22  88 NW3       30.20R
LOGANSPORT +   CLEAR     27  23  86 CALM      30.22F
PERU/GRISSOM   CLEAR     25  25 100 W2        30.20S
ROCHESTER +    CLEAR     28  27  93 CALM      30.21F
SOUTH BEND     CLEAR     25  16  68 CALM      30.21R
WARSAW +       CLEAR     27  23  86 W3        30.20S

$$

INZ006>009-017-018-025>027-290300-
NORTHEAST INDIANA

CITY           SKY/WX    TMP DP  RH WIND       PRES   REMARKS
ANGOLA *+      CLEAR     27  23  86 W3        30.18R
AUBURN +       CLEAR     28  23  80 W5        30.20S WCI  23
FORT WAYNE     CLEAR     28  25  88 W7        30.21R WCI  21
HUNTINGTON +   CLEAR     25  20  82 W3        30.20S

$$

INZ028-029-035-036-043>045-051>053-290300-
WEST CENTRAL INDIANA

CITY           SKY/WX    TMP DP  RH WIND       PRES   REMARKS
CRAWFORDSVL +  CLEAR     21  18  86 CALM      30.21
GREENCASTLE +  CLEAR     27  19  74 CALM      30.21S
LAFAYETTE      CLEAR     22  21  96 CALM      30.22F FOG
TERRE HAUTE    CLEAR     26  22  84 N3        30.23R

$$

INZ030>032-037>040-046>048-054>057-064-065-290300-
CENTRAL INDIANA

CITY           SKY/WX    TMP DP  RH WIND       PRES   REMARKS
CP ATTERBURY + CLOUDY    32  27  80 MISG      30.21S
COLUMBUS       CLOUDY    30  25  80 N5        30.21S WCI  25
FRANKFORT +    CLEAR     25  25 100 CALM      30.23S
INDIANAPOLIS   PTCLDY    25  21  85 N3        30.20F
-EAGLE CREEK   CLEAR     25  21  85 CALM      30.21R
KOKOMO *+      CLEAR     27  21  80 CALM      30.21F
MARION +       MOCLDY    27  24  88 CALM      30.21S
MT COMFORT *+  MOCLDY    27  19  74 N3        30.21S
SHELBYVILLE    CLOUDY    32  24  72 N6        30.20S WCI  26
ZIONSVILLE +   CLEAR     26  22  85 CALM      30.21S

$$

INZ033-034-041-042-049-050-058-059-290300-
EAST CENTRAL INDIANA

CITY           SKY/WX    TMP DP  RH WIND       PRES   REMARKS
MUNCIE         PTCLDY    28  24  85 NW5       30.20S WCI  23

$$

INZ060-061-067>069-081>083-085>088-290300-
SOUTHWEST INDIANA

CITY           SKY/WX    TMP DP  RH WIND       PRES   REMARKS
EVANSVILLE     CLOUDY    35  28  75 N6        30.23S WCI  30
HUNTINGBURG *+ CLOUDY    32  27  80 N6        30.22S WCI  26
WASHINGTON +   PTCLDY    30  26  88 N3        30.23R

$$

INZ062-063-066-070>080-084-089>092-290300-
SOUTH CENTRAL AND SOUTHEAST INDIANA

CITY           SKY/WX    TMP DP  RH WIND       PRES   REMARKS
BLOOMINGTON    PTCLDY    28  25  88 CALM      30.21R
NORTH VERNON + CLOUDY    32  30  93 N3        30.21

$$



USA.gov is the U.S. government's official web portal to all federal, state and local government web resources and services.